INMARSAT 2-F3

导读

INMARSAT 2-F3(国际海事卫星2-F3)由国际海事卫星组织(IM)主导,于1991年12月16日发射升空,属于第二代国际海事通信卫星系列。该卫星运行于地球静止轨道,主要为全球海事领域提供稳定的语音、数据通信服务,支撑海上船舶导航、遇险救援与航运管理,助力远洋航行安全与海事通信网络覆盖,服务全球海洋运输与应急通信需求,是早期全球海事卫星通信系统的重要组成部分。

基本信息
目录编号:
21814
目录名称:
INMARSAT 2-F3
国际标识:
1991-084B
轨道中心:
EARTH
卫星名称:
INMARSAT 2-F3
卫星全名:
--
卫星状态:
在轨 (已飞行12688 天)
发射日期:
1991-12-16 UTC
国别 :
(Inmarsat)
星等 :
--
轨道信息
数据来源 国际轨道数据
星历时间: 2026-09-10T19:34:03+0800
18小时前
查看轨道信息
半长轴: 43387.87km
偏心率: 0.0013017
轨道倾角: 14.206°
近地点辐角 91.126°
升交点赤经 12.886°
平近点角 266.554°
近地点: 36953.255km
远地点: 37066.211km
周期: 1499.037分钟
每日圈数: 0.960617
详细信息
使用方式:
暂无
2D轨道图
3D轨道图
轨道高度分析图
轨道倾角分析图
轨道综合分析图
查看轨道综合分析图
与全量物体交会距离演化趋势
与全量物体交会风险概率演化趋势